Погода Лынтупы

Погода Лынтупы : погода сейчас, прогноз погоды и архив. Всё, что Вы хотите узнать о погоде Лынтупы!

Хотите узнать прогноз погоды Лынтупы? Тогда Вам сюда: Погода Лынтупы

Поиск расширенной информации на нашем сайте:

Другие новости

Новости СМИ2

Главная страница сайта

Новости сайта

02.10.2013

Напоминаем, что на нашем новом сайте вы можете получить высокодетализированные прогнозы погоды по пунктам России, СНГ и мира (включающие важные для авиации метеовеличины, такие как направление и скорость ветра, видимость, явления погоды, количество и форма облачности, нижняя и верхняя граница облачности), а также ознакомиться с разнообразными материалами по авиационной метеорологии и подборкой полезных ссылок на эту тему.

Сайт Метеоцентр.Азия посвящён разработке технологий оптимизации авиаметеорологического обслуживания, включая проектирование и перспективное создание нескольких автоматизированных авиаметеорологических систем:
- система выпуска высокодетальных прогностических карт явлений погоды для нижнего воздушного пространства по России и ближнему зарубежью;
- система верификации прогнозов TAF (выпускаемых синоптиками официальных АМСГ РФ и ближнего зарубежья) и AUTOTAF (выпускаемых сайтом Метеоцентр.Азия) - выявление ошибок, онлайн-сопоставление с фактической погодой METAR, автоматическое внесение коррективов в прогнозы при резком отклонении фактической погоды от прогноза, подсчёт оправдываемости прогнозов по элементам и в целом;
- система обработки, анализа и отображения авиаметеорологической информации для применения провайдерами метеорологической информации.

Рекомендуем: Аренда опалубки колонн стойки для опалубки.

Погода Лынтупы - сегодня

Время (UTC), дата Ветер
(°,м/с) 
Видим.   Явления Облачность Т
(°С)
Тd
(°С)
f(%) Тe
(°С)
Pmin
(гПа)
dP
(гПа)
Po
(мм)
O2
(г/м3)
Тmin Tmax R s Состояние
почвы
09 22.03.17 240 (ЮЗ) 10 км  в посл. час дождь  10/10 270 м 
[St]
+4.3 +1.8 84 +4  1014.9  2.6  742  294           
12 22.03.17 240 (ЮЗ) 15000 м  {дождь}  9/0 средняя 
[Ac As]
+5.7 +2.8 82 +5  1015.9  1.1  743  293           
15 22.03.17 280 (З) 15000 м    9/0 средняя, верхняя 
[Ac trans|Ci sp]
+6.3 -1.5 57 +5  1016.8  743  293         
18 22.03.17 250 (З) 15000 м    3/0 средняя 
[Ac lent]
+2.5 -1.1 77 +3  1019.5  2.1  745  297    +6.5     
21 22.03.17 260 (З) 15000 м    ясно 
-0.4 -2.8 84 1021.5  1.7  746  301           
00 23.03.17 250 (З) 15000 м    ясно 
-2.2 -3.7 89 -2  1023.2  1.5  747  304           
03 23.03.17 230 (ЮЗ) 15000 м    ясно 
-1.4 -2.8 90 -2  1024.1  748  303           
06 23.03.17 240 (ЮЗ) 15000 м    ясно 
-0.1 -2.4 84 -1  1025.9  1.8  749  302  -2.5         
09 23.03.17 230 (ЮЗ) 15000 м    1/0 верхняя 
[Ci sp]
+6.5 -0.9 59 +6  1025.9  0.7  750  295           
12 23.03.17 260 (З) 15000 м    6/3 600 м верхняя 
[Cu hum|Ci sp]
+10.2 -1.2 45 +10  1024.9  -0.6  749  291           
15 23.03.17 270 (З) 15000 м    9/0 средняя, верхняя 
[Ac trans|Ci fib]
+10.2 -3.3 39 +10  1024  -0.9  749  291           
18 23.03.17 тихо ()   15000 м    9/0 верхняя 
[Ci sp]
+4.3 +0.9 79 +4  1024.6  749  297    +11.1       
21 23.03.17 тихо ()   15000 м    9/0 средняя 
[Ac As]
+2.7 +1.4 91 +3  1024.6  -0.2  749  298           
00 24.03.17 тихо ()   10 км    9/0 средняя 
[Ac As]
+1.8 +0.5 91 +2  1023.5  -1.1  748  299           
03 24.03.17 290 (З) 15000 м    9/9 720 м 
[Sc]
+3.9 +1.1 82 +5  1022  -1.2  747  297           
06 24.03.17 280 (З) 15000 м  {ливн. осадки}  9/9 840 м 
[Sc]
+3.7 +1.9 88 +5  1022  -0.1  747  297  +1.6    0.3     
09 24.03.17 290 (З) 15000 м    4/4 600 м 
[Cu hum]
+8 -3 46 +7  1021.5  747  293           
12 24.03.17 300 (СЗ) 15000 м    6/6 800 м 
[Cu med, cong]
+8.2 -3.8 42 +7  1021.9  0.4  747  293           
15 24.03.17 290 (З) 15000 м    3/3 1000 м 
[Cu hum]
+6.2 -7.1 38 +5  1022.6  0.5  747  295           
18 24.03.17 310 (СЗ) 1{11}  15000 м    ясно 
+2 -8.7 45 +3  1015.3  2.1  749  300    +8.9       
21 24.03.17 тихо ()   15000 м    ясно 
-2.8 -5.1 84 -3  1025.9  0.2  749  306           
00 25.03.17 тихо ()   15000 м    ясно 
-4.6 -5.9 91 -5  1025.6  -0.5  749  308           
03 25.03.17 230 (ЮЗ) 15000 м    9/0 верхняя 
[Ci sp]
-2.2 -5.8 76 -2  1023.3  -2  747  304           
06 25.03.17 230 (ЮЗ) 15000 м    10/0 верхняя 
[Cs]
-1.6 -4.3 82 -3  1021.7  -1.5  746  303  -4.7         
09 25.03.17 180 (Ю) 8000 м  слаб. снег  10/10 360 м 
[Frnb|Ns]
+0.6 -1.1 88 1019.4  -2.1  745  299           
Время (UTC), дата Ветер
(°,м/с) 
Видим.   Явления Облачность Т
(°С)
Тd
(°С)
f(%) Тe
(°С)
Pmin
(гПа)
dP
(гПа)
Po
(мм)
O2
(г/м3)
Тmin Tmax R s Состояние
почвы

Для получения пояснительной информации подведите курсор к названию столбца.

ПОГОДА Лынтупы - архив

Всё, что Вы хотите узнать о погоде Лынтупы - удобно и подробно!

Выберите нужную дату (начиная с 1 января 2015* года) и нажмите кнопку "Найти".
Будут отображены архивные сводки погоды по пункту Лынтупы, начиная с указанной даты.


Отображать данные в формате CSV (для использования в таблицах Excel)


Внимание! Наш архив погоды предназначен исключительно для личного некоммерческого использования в познавательных целях. Если Вам необходимы официальные справки о состоянии погоды (для производственных, юридических, коммерческих и т.п. целей), обращайтесь в органы Росгидромета.

*Примечание: данная дата относится к архиву по метеостанциям СССР (Россия, СНГ, Балтия).
Архив по метеостанциям Зарубежной Европы и Азии (кроме Китая) хранится 10 дней, по другим регионам земного шара (Китай, Африка, Америка, Австралия, Океания) - 1 день.

Лынтупы - район местоположения метеостанции


Название, широта, долгота, высота метеостанции:
Лынтупы 55.1°ш. 26.3°д. 212 м над ур. моря [Беларусь]

Дополнительная информация

В oтличие oт бoльшинства пoгoдных сайтoв мы публикуем пoдрoбную метеoинфoрмацию в детальнoм прoфессиoнальнoм фoрмате.

Характеристики температуры и влажнoсти вoздуха измеряются на высoте 2 м в тени вдали oт зданий и деревьев.
Скoрoсть ветра измеряется на высoте 10 м (на урoвне рoста челoвека скoрoсть ветра ниже в 1.5-2 раза). Если метеoстанция нахoдится в гoрoде или в лесу, тo скoрoсть ветра занижена на 2-4 м/с пo сравнению с oткрытым местoм. Скoрoсть ветра над акватoриями крупных рек и oзёр, а также на вершинах хoлмoв на 2-5 м/с выше, чем в oбычных услoвиях.
Атмoсфернoе давление в разных тoчках местнoсти мoжет значительнo oтличаться oт давления на метеoстанции, в зависимoсти oт услoвий рельефа (при пoдъёме на 10 м давление пoнижается примернo на 1 мм рт.ст.).